Regional Weather Roundup
Issued by NWS

Home | Current Version | Previous Version | Graphics & Text | Print | Product List | Glossary On
Versions: 1 2 3 4 5 6 7 8 9 10 11 12 13 14 15 16 17 18 19 20 21 22 23 24 25 26 27 28 29 30 31 32 33 34 35 36 37 38 39 40 41 42 43 44 45 46 47 48 49 50
000
ASUS45 KTFX 190519
RWRMT
MONTANA HOURLY WEATHER ROUNDUP
NATIONAL WEATHER SERVICE GREAT FALLS MT
1119 PM MDT FRI APR 18 2014

NOTE: "FAIR" INDICATES FEW OR NO CLOUDS BELOW 12000 FEET WITH NO
SIGNIFICANT WEATHER AND/OR OBSTRUCTIONS TO VISIBILITY.

* THESE STATIONS ARE NOT UNDER NWS QUALITY CONTROL. THEY DO NOT
   REPORT WEATHER SUCH AS PRECIPITATION OR FOG.

MTZ001>007-043-190600-
WEST OF THE DIVIDE
CITY           SKY/WX    TMP DP  RH WIND       PRES   REMARKS
KALISPELL      CLOUDY    43  27  53 SW6       29.98S
MISSOULA       PTCLDY    34  23  64 NW5       30.02S WCI  29
BUTTE          PTCLDY    32  16  52 S3        30.00R
MULLAN PASS    PTCLDY    25  21  85 S7        29.97R WCI  17
* ESSEX        N/A       33  32  96 N/A        N/A
* LINCOLN      N/A       36  19  50 SW6G17     N/A   WCI  31
* LOOKOUT PASS N/A       29  25  85 S1         N/A
* POLSON       N/A       37  22  55 S2G7       N/A
* SEELEY LAKE  N/A       28  23  81 S1         N/A
* THOMP F APT  CLEAR     39  11  31 NW8G21     N/A   WCI  33
$$

MTZ008-052>055-190600-
SOUTHWEST MONTANA
CITY           SKY/WX    TMP DP  RH WIND       PRES   REMARKS
BOZEMAN        CLOUDY    39  12  33 E6        29.98R WCI  35
DILLON         PTCLDY    39   9  29 S8        29.99R WCI  33
W YELLOWSTONE  N/A       33  26  75 SW3        N/A
* THREE FORKS  MOCLDY    46  10  23 N/A        N/A
* BOULDER HILL N/A       34   8  33 N/A        N/A
* MONIDA PASS  N/A       34  14  44 W4         N/A
* RAYNOLDS PAS N/A       35 -13  12 N9G14      N/A   WCI  28
* WHITEHALL    N/A       40   8  26 NW7G14     N/A   WCI  35
* WISE RIVER   N/A       33  12  42 W8G13      N/A   WCI  26
$$

MTZ009>010-012-014-046-048-049-054-190600-
EAST SLOPES AND CENTRAL MONTANA
CITY           SKY/WX    TMP DP  RH WIND       PRES   REMARKS
CUT BANK       CLEAR     37  25  62 W28G38    29.80R WCI  25
GREAT FALLS    CLEAR     37  18  46 SW14      29.86R WCI  28
HELENA         PTCLDY    41  16  36 W7        29.95R
MALMSTROM AFB  CLEAR     36  18  48 S14       29.84R WCI  27
* CONRAD       CLEAR     39  25  57 S10G15     N/A   WCI  32
* DEARBORN     N/A       45  15  30 S14G23     N/A
* EAST GLACIER N/A       34  24  67 W15G24     N/A   WCI  24
* MONARCH      N/A       35   6  29 SW15G22    N/A   WCI  25
* PENDROY      N/A       39  19  45 W29G38     N/A   WCI  27
* ROGERS PASS  N/A       34  14  44 SE11G22    N/A   WCI  26
* SAINT MARY   N/A       35  26  70 S9G27      N/A   WCI  28
* SWEET GRASS  N/A       35  35 100 SW18G28    N/A   WCI  24
* WHITE SULPH  N/A       32  10  40 W3G8       N/A
$$

MTZ011-013-016-021-035-040-045-047-050-051-190600-
NORTH CENTRAL MONTANA
CITY           SKY/WX    TMP DP  RH WIND       PRES   REMARKS
HAVRE          CLOUDY    45  27  49 W16       29.77R
LEWISTOWN      CLEAR     34  18  52 SW17      29.86R WCI  23
* CHINOOK      CLOUDY    43  32  65 W10       29.76S
* FORT BENTON  PTCLDY    45  19  35 SW15G22   29.85R
* MALTA APT    PTCLDY    46  25  44 W24G35    29.73R
* CHESTER      N/A       40  25  55 W14G27     N/A   WCI  32
* DENTON       N/A       36  15  42 SW14       N/A   WCI  27
* GEYSER       N/A       37  12  36 SW14       N/A   WCI  28
* JUDITH GAP   N/A       40  10  29 W27G35     N/A   WCI  29
* LOMA         N/A       44  19  37 SW8G17     N/A
$$

MTZ017>020-022>027-061-062-190600-
NORTHEAST MONTANA
CITY           SKY/WX    TMP DP  RH WIND       PRES   REMARKS
GLASGOW        PTCLDY    39  34  82 SW9       29.74S WCI  33
GLENDIVE       CLOUDY    39  36  89 SW8       29.80R WCI  33
JORDAN         CLEAR     39  30  70 W7        29.79S WCI  34
SIDNEY         CLOUDY    43  39  86 SW5       29.73F
WOLF POINT     MOCLDY    39  36  89 SW9       29.75R WCI  33
* BEAVER HILL  N/A       40  37  89 SW7G15     N/A   WCI  35
* CIRCLE       N/A       39  36  89 N/A        N/A
* LINDSAY DVD  N/A       42  34  73 SW17G22    N/A
* NAVAJO       N/A       39  36  89 W11G16     N/A   WCI  32
* SACO         N/A       42  26  53 SW18       N/A
$$

MTZ028>042-056>058-190600-
SOUTHCENTRAL AND SOUTHEAST MONTANA
CITY           SKY/WX    TMP DP  RH WIND       PRES   REMARKS
BAKER          CLOUDY    41  37  86 NW9       29.85R
BILLINGS       PTCLDY    45  12  26 SW12      29.88R
LIVINGSTON     MOCLDY    43  12  28 W23       29.92S
MILES CITY     CLOUDY    45  39  80 W10       29.84R
* LAUREL APT   PTCLDY    45  10  24 W5         N/A
* ROUNDUP APT  PTCLDY    45  10  24 SW18G25    N/A
* HYSHAM       N/A       42  15  33 W5G13      N/A
* REED POINT   N/A       43  14  31 W9         N/A
* ROSCOE HILL  N/A       38  15  39 NE4        N/A
$$

REGIONAL REPORTS...DAKOTAS
CITY           SKY/WX    TMP DP  RH WIND       PRES   REMARKS
WILLISTON      LGT RAIN  43  39  86 W20G31    29.72S
DICKINSON      PTCLDY    43  39  86 W24G32    29.73R
CROSBY         MOCLDY    41  41 100 SW16      29.69R
TIOGA          FOG       36  36 100 SW3       29.73R
WATFORD CITY   MOCLDY    41  39  93 NW18G31   29.73R
BISMARCK       CLOUDY    48  39  71 NW12      29.62R
GRAND FORKS    CLOUDY    43  28  56 SE28G39   29.84F
FARGO          CLOUDY    46  30  54 SE33G44   29.84F
BUFFALO SD     PTCLDY    46  39  77 NW40G52   29.74R
RAPID CITY     MOCLDY    54  39  57 N23G32    29.73R
$$

REGIONAL REPORTS...WYOMING/IDAHO/WASHINGTON
CITY           SKY/WX    TMP DP  RH WIND       PRES   REMARKS
GILLETTE       CLOUDY    45  37  74 N29G40    29.90R
SHERIDAN       PTCLDY    37  28  70 W5        29.92S WCI  33
CODY           PTCLDY    37  27  67 E3        29.91R
YELLOWSTONE LA MOCLDY    28  25  89 CALM      30.03S
SALMON         PTCLDY    37  18  46 S5        30.00S WCI  33
MULLAN PASS    PTCLDY    25  21  85 S7        29.97S WCI  17
SAND POINT     PTCLDY    37  37 100 CALM      29.97S
SPOKANE        FAIR      43  25  49 S9        29.96S
$$

REGIONAL REPORTS...ALBERTA
CITY           SKY/WX    TMP DP  RH WIND       PRES   REMARKS
CALGARY        MOCLDY    30  27  89 N10       29.81R WCI  21
LETHBRIDGE     CLOUDY    34  32  92 W12       29.83R WCI  25
MEDICINE HAT   LGT SNOW  34  34 100 W22       29.75R WCI  22
EDMONTON       CLOUDY    32  28  85 W2        29.82S
WATERTON GATE  N/A       39  23  53 SW22G32    N/A   WCI  29
CARDSTON       N/A       41  25  53 W14G24     N/A
MILK RIVER     N/A       34  32  92 NW18       N/A   WCI  23
$$

REGIONAL REPORTS...SASKATCHEWAN
CITY           SKY/WX    TMP DP  RH WIND       PRES   REMARKS
SWIFT CURRENT  MOCLDY    39  36  89 W17       29.60S WCI  30
REGINA         CLOUDY    37  36  96 E10       29.60F WCI  30
VAL MARIE      N/A       41  32  70 W21G30     N/A
ASSINIBOIA     N/A       45  32  60 SW31G41    N/A
CORONACH       N/A       39  36  89 W6         N/A   WCI  35

$$




USA.gov is the U.S. government's official web portal to all federal, state and local government web resources and services.